SCP
0 0 0 0 0 0 0 0 0 0 0 0 0 0 0 0 0 0 0 0 0 0 0 0 0 0 0 0 0 0 0 1 0 0 2 1 1 0 0 0 0 0 0
0 0 0 0 0 0 0 0 0 0 0 0 0 0 0 0 0 0 0 0 0 0 0 0 0 0 0 0 0 1 1 1 1 0 1 1 1 0 0 0 0 0 0
0 0 0 0 0 0 0 0 0 0 0 0 0 0 0 0 0 0 0 0 0 0 0 0 0 0 0 0 0 0 0 1 1 1 1 0 0 0 0 0 0 0 0
0 0 0 0 0 0 0 0 0 0 0 0 0 0 0 0 0 0 0 0 0 0 0 0 0 0 0 0 0 0 0 0 1 1 1 0 0 0 0 0 0 0 0
0 0 0 0 0 0 0 0 0 0 0 0 0 0 0 0 0 0 0 0 0 0 0 0 0 0 0 0 0 0 0 0 0 1 1 1 0 0 0 0 0 0 0
0 0 0 0 0 0 0 0 0 0 0 0 0 0 0 0 0 0 0 0 0 0 0 0 0 0 0 0 0 0 0 0 0 0 1 1 0 0 0 0 0 0 0
0 0 0 0 0 0 0 0 0 0 0 0 0 0 0 0 0 0 0 0 0 0 0 0 0 0 0 0 0 0 0 0 0 0 0 0 0 0 0 0 0 0 0
0 0 0 0 0 0 0 0 0 0 0 0 0 0 0 0 0 0 0 0 0 0 0 0 0 0 0 0 0 0 0 0 0 0 0 0 0 0 0 0 0 0 0
0 0 0 0 0 0 0 0 0 0 0 0 0 0 0 0 0 0 0 0 0 0 0 0 0 0 0 0 0 0 0 0 0 0 0 0 0 0 0 0 0 0 0
0 0 0 0 0 0 0 0 0 0 0 0 0 0 0 0 0 0 0 0 0 0 0 0 0 0 0 0 0 0 0 0 0 0 0 0 0 0 0 0 0 0 0
0 0 0 0 0 0 0 0 0 0 0 0 0 0 0 0 0 0 0 0 0 0 0 0 0 0 0 0 0 0 0 0 0 0 0 0 0 0 0 0 0 0 1
0 0 0 0 0 0 0 0 0 0 0 0 0 0 0 0 0 0 0 0 0 0 0 0 0 0 0 0 0 0 0 0 0 0 0 0 0 0 0 0 0 0 0
0 0 0 0 0 0 0 0 0 0 0 0 0 0 0 0 0 0 0 0 0 0 0 0 0 0 0 0 0 0 0 0 0 0 0 0 0 0 0 0 0 0 0
0 0 0 0 0 0 0 0 0 0 0 0 0 0 0 0 0 0 0 0 0 0 0 0 0 0 0 0 0 0 0 0 0 0 0 0 0 0 0 0 0 0 0
0 0 0 0 0 0 0 0 0 0 0 0 0 0 0 0 0 0 0 0 0 0 0 0 0 0 0 0 0 0 0 0 0 0 0 0 0 0 0 0 0 0 0
0 0 0 0 0 0 0 0 0 0 0 0 0 0 0 0 0 0 0 0 0 0 0 0 0 0 0 0 0 0 0 0 0 0 0 0 0 0 0 0 0 0 0
0 0 0 0 0 0 0 0 0 0 0 0 0 0 0 0 0 0 0 0 0 0 0 0 0 0 0 0 0 0 0 0 0 0 0 0 0 0 0 0 0 0 0
0 0 0 0 0 0 0 0 0 0 0 0 0 0 0 0 0 0 0 0 0 0 0 0 0 0 0 0 0 0 0 0 0 0 0 0 0 0 0 0 0 0 0
0 0 0 0 0 0 0 0 0 0 0 0 0 0 0 0 0 0 0 0 0 0 0 0 0 0 0 0 0 0 0 0 0 0 0 0 0 0 0 0 0 0 0
0 0 0 0 0 0 0 0 0 0 0 0 0 0 0 0 0 0 0 0 0 0 0 0 0 0 0 0 0 0 0 0 0 0 0 0 0 0 0 0 0 0 0
0 0 0 0 0 -0 -0 0 0 0 0 0 0 -0 0 0 0 0 0 0 0 0 0 0 0 0 0 0 0 0 0 0 0 0 0 0 0 0 0 0 0 0 0
0 0 0 0 -0 0 0 0 0 0 0 0 0 -0 0 0 0 0 0 0 0 0 0 0 0 0 0 0 0 0 0 0 0 0 0 0 0 0 0 0 0 0 0
0 0 0 -0 0 0 0 0 0 0 0 0 0 0 0 0 0 0 0 0 0 0 0 0 0 0 0 0 0 0 0 0 0 0 0 0 0 0 0 0 0 0 0
0 0 0 0 0 0 0 0 0 0 0 0 0 0 0 0 0 0 0 0 0 0 0 0 0 0 0 0 0 0 0 0 0 0 0 0 0 0 0 0 0 0 0
0 0 0 0 0 0 0 0 0 0 0 0 0 0 0 0 0 0 0 0 0 0 0 0 0 0 0 -0 -0 0 0 0 0 0 0 0 0 0 0 0 0 0 0
-0 0 -0 0 0 0 0 0 0 0 0 0 0 0 0 0 0 0 0 0 -0 -0 0 0 0 0 0 0 0 0 0 0 0 0 0 0 0 0 0 0 0 0 0
Wind_Speed_500mb
15 13 10 6 5 8 11 15 20 24 28 29 30 32 30 28 29 28 21 24 20 27 25 26 30 23 26 28 29 41 43 37 43 39 17 26 34 25 31 39 38 33 31
14 8 3 1 3 5 9 16 24 28 34 34 35 33 31 31 29 29 27 22 23 24 22 24 27 26 30 27 25 31 33 40 41 43 32 34 34 34 30 33 35 40 32
12 8 7 4 4 7 12 20 28 33 38 45 42 35 33 32 31 29 30 30 32 27 26 28 25 26 27 27 26 29 27 31 35 36 31 33 40 36 35 37 40 37 27
15 14 13 10 9 12 18 25 33 38 41 37 35 36 35 34 31 30 28 41 43 35 33 37 29 26 31 32 25 25 28 34 30 34 31 34 39 41 38 42 44 40 33
17 14 13 12 13 17 23 29 32 37 35 35 36 36 35 33 30 36 47 49 51 50 45 39 35 27 42 39 39 31 32 27 27 29 31 30 30 36 39 45 48 42 36
15 14 13 15 17 22 27 31 33 33 34 35 37 37 36 32 38 53 55 55 52 46 43 41 41 42 45 29 38 33 39 39 36 26 31 30 35 33 35 39 45 48 43
14 13 14 18 23 27 30 31 32 33 36 37 38 36 36 34 44 54 60 52 45 41 37 33 33 31 34 33 35 32 26 30 39 39 38 28 39 17 38 43 42 50 46
12 13 17 22 26 29 31 31 32 33 36 37 38 36 37 35 45 53 57 49 34 32 32 33 35 33 33 36 42 41 36 32 32 34 33 34 32 42 50 33 37 39 35
12 16 19 23 27 28 31 33 34 36 34 35 35 36 38 39 39 50 52 38 33 31 29 29 32 34 35 40 48 42 40 40 36 41 49 49 46 39 41 49 35 44 44
13 16 20 23 26 29 31 32 36 33 36 35 36 36 39 42 37 44 43 34 33 31 29 27 29 34 39 42 39 38 40 36 38 42 41 41 44 42 43 47 41 39 47
14 18 21 23 27 27 27 31 34 32 37 40 42 39 39 35 34 41 47 41 29 33 31 28 24 37 37 38 40 39 33 41 48 50 43 38 42 40 36 42 52 60 43
18 21 24 27 28 27 31 34 30 34 37 39 40 36 31 31 32 37 42 46 45 37 33 30 30 43 52 54 54 50 48 45 49 40 41 48 46 41 40 48 44 52 49
22 25 27 29 30 31 31 33 32 30 33 33 33 34 34 32 32 35 42 45 44 44 34 37 44 46 48 54 51 51 47 42 33 34 38 42 48 46 43 49 49 44 52
26 27 29 31 32 31 31 30 31 31 34 33 36 36 39 41 44 40 31 38 45 41 47 46 43 48 47 43 42 41 38 36 37 37 40 39 42 47 49 48 46 45 48
27 30 31 30 34 36 34 34 35 37 36 38 40 43 47 48 42 45 51 53 54 56 59 61 56 47 40 36 37 39 38 35 41 48 45 43 37 44 47 48 52 46 48
34 33 36 39 37 37 38 43 40 44 47 53 58 59 56 56 58 57 58 57 59 56 58 63 62 51 44 41 38 36 35 37 39 39 44 47 48 45 46 49 54 50 50
36 38 39 41 41 44 49 51 53 46 52 50 52 46 48 57 55 53 50 51 53 51 62 67 68 58 50 44 42 38 37 35 36 41 45 45 51 46 41 47 52 52 52
37 43 40 43 46 47 47 49 49 49 56 56 54 56 63 61 58 53 50 50 54 55 59 58 55 54 54 48 43 40 38 36 36 42 45 44 49 43 48 43 50 51 53
40 40 41 43 43 52 48 48 52 57 67 70 70 66 58 54 57 55 46 46 49 47 42 45 45 47 45 44 44 44 44 42 38 39 42 48 48 45 53 39 46 52 54
40 42 43 46 50 50 49 51 54 60 63 65 68 65 59 56 53 46 40 42 46 46 42 39 39 40 44 43 43 44 43 44 41 42 48 46 36 53 58 39 40 52 54
39 44 49 49 50 48 50 53 56 58 58 59 59 55 55 59 60 50 42 40 43 45 44 42 42 40 39 41 38 43 40 43 40 36 47 44 34 50 53 40 41 47 56
42 50 54 51 50 49 50 54 54 55 55 57 59 57 52 53 49 47 48 46 44 43 43 43 49 43 37 37 37 37 39 40 37 38 43 43 35 45 47 42 40 41 60
45 52 59 60 54 51 51 53 56 57 57 57 55 51 47 46 45 45 47 45 45 44 44 45 45 47 42 38 41 40 36 41 40 37 46 36 36 37 41 46 43 44 62
48 51 62 63 64 58 58 62 59 57 55 52 50 48 46 43 39 41 43 42 42 40 40 41 42 44 41 39 37 37 40 42 43 39 39 31 39 31 35 48 46 35 50
50 56 64 68 69 67 65 67 63 60 54 52 50 48 44 42 39 39 40 41 40 39 38 38 36 35 37 39 35 36 31 36 45 38 22 35 39 38 39 48 44 38 50
51 58 63 69 73 73 70 71 68 65 58 54 50 47 44 42 40 39 39 38 37 37 35 33 33 34 31 29 31 33 40 42 44 31 31 37 42 35 44 58 45 44 60
Wind_Direction_500mb
153 140 123 92 35 27 20 9 356 352 347 345 338 332 328 328 325 313 308 315 317 290 303 311 308 303 303 296 288 268 256 254 266 263 248 226 242 244 230 235 241 245 249
167 169 183 96 357 347 344 336 334 334 331 329 325 320 315 310 308 311 309 294 286 278 291 305 302 301 297 303 299 283 269 255 265 264 261 247 243 254 244 240 241 245 238
205 233 250 262 290 314 325 322 323 322 320 318 317 316 314 309 308 301 297 296 263 274 281 276 288 295 299 301 297 301 285 279 267 267 261 254 250 246 244 250 245 244 234
231 244 244 260 287 307 314 313 313 315 316 316 314 312 310 309 307 305 279 264 275 266 254 257 264 286 289 278 275 290 299 287 283 270 261 268 252 253 248 241 239 234 214
231 236 243 267 292 303 308 312 313 313 313 313 311 310 308 306 304 277 283 283 282 284 277 273 275 262 270 270 282 277 274 290 290 284 266 256 239 258 248 242 233 228 216
221 229 248 275 294 305 310 313 312 311 310 309 308 306 305 305 288 286 286 288 290 286 283 280 274 267 267 274 273 277 273 278 276 288 271 257 246 247 269 254 236 222 216
216 240 269 289 301 307 308 309 309 308 307 304 302 302 298 296 293 290 293 298 297 291 284 282 278 269 262 255 258 271 276 268 272 280 275 269 254 262 260 256 238 230 217
235 265 285 295 300 302 302 302 303 303 303 304 301 300 297 296 289 291 293 307 302 295 289 283 282 277 271 262 255 258 260 260 261 275 278 271 264 249 256 238 257 232 216
267 278 290 297 301 301 299 300 298 303 302 303 302 299 291 290 290 288 295 306 304 300 297 287 278 273 267 260 257 257 257 256 253 255 258 262 274 265 255 242 231 218 201
278 295 302 305 304 301 297 298 291 296 300 299 294 292 292 293 295 297 303 310 303 302 302 300 295 277 265 268 269 263 261 262 257 256 264 263 270 269 253 244 222 218 205
307 311 311 306 301 302 298 290 292 294 295 295 296 296 297 301 301 296 305 310 307 299 296 295 285 281 276 260 261 264 263 254 243 238 251 246 250 257 256 245 233 220 228
320 319 318 317 314 307 299 296 295 294 295 296 297 297 295 293 292 292 294 301 302 303 297 291 282 276 275 274 271 269 270 264 249 249 243 244 248 249 244 260 238 230 222
327 326 323 319 317 311 306 302 301 296 292 291 294 294 294 291 282 285 292 292 295 296 289 281 282 287 283 277 279 270 261 261 256 253 245 245 243 245 241 250 255 230 229
328 326 319 321 317 319 308 303 296 291 290 291 293 293 292 292 292 286 284 284 289 287 295 292 279 277 291 295 294 269 263 257 252 246 246 244 245 244 246 240 250 237 227
329 326 326 318 314 313 308 300 293 290 283 282 286 289 290 286 282 276 273 279 283 280 282 282 285 283 281 279 278 274 268 259 246 242 245 246 241 237 241 238 236 237 227
326 323 316 317 310 308 305 303 297 295 292 280 281 285 286 280 282 279 277 278 280 277 275 275 276 275 272 267 265 264 259 258 254 246 242 231 238 241 236 234 237 234 226
317 317 315 315 311 309 307 309 305 297 291 301 304 302 295 293 289 287 286 279 277 270 266 269 271 272 269 265 261 260 260 256 253 249 242 235 226 246 238 235 232 224 222
323 322 318 313 311 309 305 302 303 305 308 308 306 295 293 294 295 292 288 284 278 272 271 267 267 262 266 265 257 257 258 256 250 246 242 235 238 241 239 239 232 226 217
327 322 316 314 311 310 312 308 308 305 302 303 306 305 303 298 295 294 292 281 275 266 258 260 263 267 259 257 252 251 253 253 251 248 242 233 237 243 239 239 233 229 215
328 322 324 321 317 319 315 312 306 303 302 303 304 304 305 301 297 291 283 278 278 277 269 263 260 258 258 260 254 247 248 246 251 249 245 227 234 244 236 247 237 221 215
337 341 337 334 325 319 316 312 310 308 307 305 303 302 298 296 293 287 283 275 267 262 259 257 257 251 256 259 250 243 246 242 235 245 237 225 238 233 240 237 240 228 214
349 348 344 335 330 325 321 321 320 319 318 315 312 310 308 304 300 294 287 283 276 269 262 259 258 249 246 251 249 246 247 238 239 239 237 223 240 236 230 242 237 237 204
2 353 352 352 345 339 337 336 334 331 325 319 314 310 307 300 295 291 291 286 280 273 266 262 259 253 241 245 244 242 242 236 234 237 223 235 236 240 229 241 233 234 195
359 355 358 357 357 353 350 346 341 337 328 322 319 316 312 308 302 297 292 288 283 277 271 266 262 255 241 246 238 244 236 239 223 229 224 234 230 238 241 230 230 246 191
359 -0 1 2 1 358 355 353 350 344 339 335 330 326 323 318 310 302 297 291 287 275 271 264 261 257 245 241 241 240 225 244 220 216 238 220 228 232 233 223 222 222 201
357 358 0 4 5 4 0 359 356 355 348 345 343 339 333 325 319 312 303 292 281 275 268 263 259 253 242 240 235 237 227 225 215 232 231 226 226 231 224 213 219 239 191
Wind_Speed_850mb
15 13 10 6 5 8 11 15 20 24 28 29 30 32 30 28 29 28 21 24 20 27 25 26 30 23 26 28 29 41 43 37 43 39 17 26 34 25 31 39 38 33 31
14 8 3 1 3 5 9 16 24 28 34 34 35 33 31 31 29 29 27 22 23 24 22 24 27 26 30 27 25 31 33 40 41 43 32 34 34 34 30 33 35 40 32
12 8 7 4 4 7 12 20 28 33 38 45 42 35 33 32 31 29 30 30 32 27 26 28 25 26 27 27 26 29 27 31 35 36 31 33 40 36 35 37 40 37 27
15 14 13 10 9 12 18 25 33 38 41 37 35 36 35 34 31 30 28 41 43 35 33 37 29 26 31 32 25 25 28 34 30 34 31 34 39 41 38 42 44 40 33
17 14 13 12 13 17 23 29 32 37 35 35 36 36 35 33 30 36 47 49 51 50 45 39 35 27 42 39 39 31 32 27 27 29 31 30 30 36 39 45 48 42 36
15 14 13 15 17 22 27 31 33 33 34 35 37 37 36 32 38 53 55 55 52 46 43 41 41 42 45 29 38 33 39 39 36 26 31 30 35 33 35 39 45 48 43
14 13 14 18 23 27 30 31 32 33 36 37 38 36 36 34 44 54 60 52 45 41 37 33 33 31 34 33 35 32 26 30 39 39 38 28 39 17 38 43 42 50 46
12 13 17 22 26 29 31 31 32 33 36 37 38 36 37 35 45 53 57 49 34 32 32 33 35 33 33 36 42 41 36 32 32 34 33 34 32 42 50 33 37 39 35
12 16 19 23 27 28 31 33 34 36 34 35 35 36 38 39 39 50 52 38 33 31 29 29 32 34 35 40 48 42 40 40 36 41 49 49 46 39 41 49 35 44 44
13 16 20 23 26 29 31 32 36 33 36 35 36 36 39 42 37 44 43 34 33 31 29 27 29 34 39 42 39 38 40 36 38 42 41 41 44 42 43 47 41 39 47
14 18 21 23 27 27 27 31 34 32 37 40 42 39 39 35 34 41 47 41 29 33 31 28 24 37 37 38 40 39 33 41 48 50 43 38 42 40 36 42 52 60 43
18 21 24 27 28 27 31 34 30 34 37 39 40 36 31 31 32 37 42 46 45 37 33 30 30 43 52 54 54 50 48 45 49 40 41 48 46 41 40 48 44 52 49
22 25 27 29 30 31 31 33 32 30 33 33 33 34 34 32 32 35 42 45 44 44 34 37 44 46 48 54 51 51 47 42 33 34 38 42 48 46 43 49 49 44 52
26 27 29 31 32 31 31 30 31 31 34 33 36 36 39 41 44 40 31 38 45 41 47 46 43 48 47 43 42 41 38 36 37 37 40 39 42 47 49 48 46 45 48
27 30 31 30 34 36 34 34 35 37 36 38 40 43 47 48 42 45 51 53 54 56 59 61 56 47 40 36 37 39 38 35 41 48 45 43 37 44 47 48 52 46 48
34 33 36 39 37 37 38 43 40 44 47 53 58 59 56 56 58 57 58 57 59 56 58 63 62 51 44 41 38 36 35 37 39 39 44 47 48 45 46 49 54 50 50
36 38 39 41 41 44 49 51 53 46 52 50 52 46 48 57 55 53 50 51 53 51 62 67 68 58 50 44 42 38 37 35 36 41 45 45 51 46 41 47 52 52 52
37 43 40 43 46 47 47 49 49 49 56 56 54 56 63 61 58 53 50 50 54 55 59 58 55 54 54 48 43 40 38 36 36 42 45 44 49 43 48 43 50 51 53
40 40 41 43 43 52 48 48 52 57 67 70 70 66 58 54 57 55 46 46 49 47 42 45 45 47 45 44 44 44 44 42 38 39 42 48 48 45 53 39 46 52 54
40 42 43 46 50 50 49 51 54 60 63 65 68 65 59 56 53 46 40 42 46 46 42 39 39 40 44 43 43 44 43 44 41 42 48 46 36 53 58 39 40 52 54
39 44 49 49 50 48 50 53 56 58 58 59 59 55 55 59 60 50 42 40 43 45 44 42 42 40 39 41 38 43 40 43 40 36 47 44 34 50 53 40 41 47 56
42 50 54 51 50 49 50 54 54 55 55 57 59 57 52 53 49 47 48 46 44 43 43 43 49 43 37 37 37 37 39 40 37 38 43 43 35 45 47 42 40 41 60
45 52 59 60 54 51 51 53 56 57 57 57 55 51 47 46 45 45 47 45 45 44 44 45 45 47 42 38 41 40 36 41 40 37 46 36 36 37 41 46 43 44 62
48 51 62 63 64 58 58 62 59 57 55 52 50 48 46 43 39 41 43 42 42 40 40 41 42 44 41 39 37 37 40 42 43 39 39 31 39 31 35 48 46 35 50
50 56 64 68 69 67 65 67 63 60 54 52 50 48 44 42 39 39 40 41 40 39 38 38 36 35 37 39 35 36 31 36 45 38 22 35 39 38 39 48 44 38 50
51 58 63 69 73 73 70 71 68 65 58 54 50 47 44 42 40 39 39 38 37 37 35 33 33 34 31 29 31 33 40 42 44 31 31 37 42 35 44 58 45 44 60
Wind_Direction_850mb
153 140 123 92 35 27 20 9 356 352 347 345 338 332 328 328 325 313 308 315 317 290 303 311 308 303 303 296 288 268 256 254 266 263 248 226 242 244 230 235 241 245 249
167 169 183 96 357 347 344 336 334 334 331 329 325 320 315 310 308 311 309 294 286 278 291 305 302 301 297 303 299 283 269 255 265 264 261 247 243 254 244 240 241 245 238
205 233 250 262 290 314 325 322 323 322 320 318 317 316 314 309 308 301 297 296 263 274 281 276 288 295 299 301 297 301 285 279 267 267 261 254 250 246 244 250 245 244 234
231 244 244 260 287 307 314 313 313 315 316 316 314 312 310 309 307 305 279 264 275 266 254 257 264 286 289 278 275 290 299 287 283 270 261 268 252 253 248 241 239 234 214
231 236 243 267 292 303 308 312 313 313 313 313 311 310 308 306 304 277 283 283 282 284 277 273 275 262 270 270 282 277 274 290 290 284 266 256 239 258 248 242 233 228 216
221 229 248 275 294 305 310 313 312 311 310 309 308 306 305 305 288 286 286 288 290 286 283 280 274 267 267 274 273 277 273 278 276 288 271 257 246 247 269 254 236 222 216
216 240 269 289 301 307 308 309 309 308 307 304 302 302 298 296 293 290 293 298 297 291 284 282 278 269 262 255 258 271 276 268 272 280 275 269 254 262 260 256 238 230 217
235 265 285 295 300 302 302 302 303 303 303 304 301 300 297 296 289 291 293 307 302 295 289 283 282 277 271 262 255 258 260 260 261 275 278 271 264 249 256 238 257 232 216
267 278 290 297 301 301 299 300 298 303 302 303 302 299 291 290 290 288 295 306 304 300 297 287 278 273 267 260 257 257 257 256 253 255 258 262 274 265 255 242 231 218 201
278 295 302 305 304 301 297 298 291 296 300 299 294 292 292 293 295 297 303 310 303 302 302 300 295 277 265 268 269 263 261 262 257 256 264 263 270 269 253 244 222 218 205
307 311 311 306 301 302 298 290 292 294 295 295 296 296 297 301 301 296 305 310 307 299 296 295 285 281 276 260 261 264 263 254 243 238 251 246 250 257 256 245 233 220 228
320 319 318 317 314 307 299 296 295 294 295 296 297 297 295 293 292 292 294 301 302 303 297 291 282 276 275 274 271 269 270 264 249 249 243 244 248 249 244 260 238 230 222
327 326 323 319 317 311 306 302 301 296 292 291 294 294 294 291 282 285 292 292 295 296 289 281 282 287 283 277 279 270 261 261 256 253 245 245 243 245 241 250 255 230 229
328 326 319 321 317 319 308 303 296 291 290 291 293 293 292 292 292 286 284 284 289 287 295 292 279 277 291 295 294 269 263 257 252 246 246 244 245 244 246 240 250 237 227
329 326 326 318 314 313 308 300 293 290 283 282 286 289 290 286 282 276 273 279 283 280 282 282 285 283 281 279 278 274 268 259 246 242 245 246 241 237 241 238 236 237 227
326 323 316 317 310 308 305 303 297 295 292 280 281 285 286 280 282 279 277 278 280 277 275 275 276 275 272 267 265 264 259 258 254 246 242 231 238 241 236 234 237 234 226
317 317 315 315 311 309 307 309 305 297 291 301 304 302 295 293 289 287 286 279 277 270 266 269 271 272 269 265 261 260 260 256 253 249 242 235 226 246 238 235 232 224 222
323 322 318 313 311 309 305 302 303 305 308 308 306 295 293 294 295 292 288 284 278 272 271 267 267 262 266 265 257 257 258 256 250 246 242 235 238 241 239 239 232 226 217
327 322 316 314 311 310 312 308 308 305 302 303 306 305 303 298 295 294 292 281 275 266 258 260 263 267 259 257 252 251 253 253 251 248 242 233 237 243 239 239 233 229 215
328 322 324 321 317 319 315 312 306 303 302 303 304 304 305 301 297 291 283 278 278 277 269 263 260 258 258 260 254 247 248 246 251 249 245 227 234 244 236 247 237 221 215
337 341 337 334 325 319 316 312 310 308 307 305 303 302 298 296 293 287 283 275 267 262 259 257 257 251 256 259 250 243 246 242 235 245 237 225 238 233 240 237 240 228 214
349 348 344 335 330 325 321 321 320 319 318 315 312 310 308 304 300 294 287 283 276 269 262 259 258 249 246 251 249 246 247 238 239 239 237 223 240 236 230 242 237 237 204
2 353 352 352 345 339 337 336 334 331 325 319 314 310 307 300 295 291 291 286 280 273 266 262 259 253 241 245 244 242 242 236 234 237 223 235 236 240 229 241 233 234 195
359 355 358 357 357 353 350 346 341 337 328 322 319 316 312 308 302 297 292 288 283 277 271 266 262 255 241 246 238 244 236 239 223 229 224 234 230 238 241 230 230 246 191
359 -0 1 2 1 358 355 353 350 344 339 335 330 326 323 318 310 302 297 291 287 275 271 264 261 257 245 241 241 240 225 244 220 216 238 220 228 232 233 223 222 222 201
357 358 0 4 5 4 0 359 356 355 348 345 343 339 333 325 319 312 303 292 281 275 268 263 259 253 242 240 235 237 227 225 215 232 231 226 226 231 224 213 219 239 191